Weather History for Thomasville, GA

Change the Weather History Date:

Saturday, January 25, 2014

  Actual Average (KVLD) Record (KVLD)
Temperature  
Mean Temperature 44 °F 50 °F  
Max Temperature 53 °F 62 °F 60 °F (2014)
Min Temperature 35 °F 39 °F 38 °F (2014)
Degree Days  
Heating Degree Days 21 15  
Month to date heating degree days 375  
Since 1 July heating degree days 988  
Moisture  
Dew Point 33 °F    
Average Humidity 65    
Maximum Humidity 100    
Minimum Humidity 38    
Precipitation  
Precipitation 0.00 in 0.15 in - ()
Month to date precipitation 3.72  
Year to date precipitation 3.72  
Sea Level Pressure  
Sea Level Pressure 30.13 in    
Wind  
Wind Speed 4 mph (WSW)    
Max Wind Speed 14 mph    
Max Gust Speed 22 mph    
Visibility 10 miles    
Events      
T = Trace of Precipitation, MM = Missing Value Source: NWS Daily Summary

Daily Weather History Graph

Daily Weather History Graph

Search for Another Location

Airport:

Trip Planner

Search our weather history database for the weather conditions in past years. The results will help you decide how hot, cold, wet, or windy it might be!

Date:

Astronomy

Jan. 25, 2014 Rise Set
Actual Time 7:30 AM EST 6:05 PM EST
Civil Twilight 7:05 AM EST 6:30 PM EST
Nautical Twilight 6:36 AM EST 6:59 PM EST
Astronomical Twilight 6:07 AM EST 7:28 PM EST
Moon 2:03 AM EST (1/25) 1:04 PM EST (1/25)
Length of Visible Light 11h 25m
Length of Day
10h 34m
Waning Crescent, 34% of the Moon is Illuminated
Jan 25
Waning Crescent
Jan 30
New
Feb 6
First Quarter
Feb 14
Full
Feb 22
Last Quarter

Hourly Weather History & Observations

Time (EST) Temp. Windchill Dew Point Humidity Pressure Visibility Wind Dir Wind Speed Gust Speed Precip Events Conditions
12:15 AM 37.4 °F - 17.6 °F 45% 30.33 in 10.0 mi Calm Calm - N/A   Overcast
12:35 AM 37.4 °F 34.9 °F 17.6 °F 45% 30.31 in 10.0 mi South 3.5 mph - N/A   Overcast
12:55 AM 37.4 °F - 17.6 °F 45% 30.30 in 10.0 mi Calm Calm - N/A   Overcast
1:15 AM 35.6 °F - 15.8 °F 44% 30.30 in 10.0 mi Calm Calm - N/A   Overcast
1:35 AM 37.4 °F - 14.0 °F 38% 30.29 in 10.0 mi Calm Calm - N/A   Overcast
1:55 AM 37.4 °F 34.9 °F 14.0 °F 38% 30.28 in 10.0 mi South 3.5 mph - N/A   Overcast
2:15 AM 35.6 °F - 14.0 °F 41% 30.27 in 10.0 mi Calm Calm - N/A   Overcast
2:35 AM 37.4 °F - 14.0 °F 38% 30.26 in 10.0 mi Calm Calm - N/A   Overcast
2:55 AM 35.6 °F 32.8 °F 17.6 °F 48% 30.25 in 10.0 mi SW 3.5 mph - N/A   Overcast
3:15 AM 35.6 °F - 17.6 °F 48% 30.25 in 10.0 mi Calm Calm - N/A   Overcast
3:35 AM 35.6 °F - 15.8 °F 44% 30.25 in 10.0 mi Calm Calm - N/A   Overcast
3:55 AM 35.6 °F - 19.4 °F 52% 30.25 in 10.0 mi Calm Calm - N/A   Overcast
4:15 AM 35.6 °F - 19.4 °F 52% 30.24 in 10.0 mi Calm Calm - N/A   Overcast
4:35 AM 35.6 °F - 19.4 °F 52% 30.23 in 10.0 mi Calm Calm - N/A   Mostly Cloudy
4:55 AM 35.6 °F - 21.2 °F 56% 30.21 in 10.0 mi Calm Calm - N/A   Mostly Cloudy
5:15 AM 35.6 °F - 21.2 °F 56% 30.22 in 10.0 mi Calm Calm - N/A   Overcast
5:35 AM 35.6 °F - 21.2 °F 56% 30.22 in 10.0 mi Calm Calm - N/A   Overcast
5:55 AM 35.6 °F - 19.4 °F 52% 30.21 in 10.0 mi Calm Calm - N/A   Overcast
6:15 AM 35.6 °F - 21.2 °F 56% 30.21 in 10.0 mi Calm Calm - N/A   Mostly Cloudy
6:35 AM 35.6 °F 32.8 °F 21.2 °F 56% 30.21 in 10.0 mi SW 3.5 mph - N/A   Mostly Cloudy
6:55 AM 35.6 °F 32.8 °F 21.2 °F 56% 30.21 in 10.0 mi WSW 3.5 mph - N/A   Overcast
7:15 AM 35.6 °F 32.8 °F 21.2 °F 56% 30.22 in 10.0 mi WSW 3.5 mph - N/A   Overcast
7:35 AM 37.4 °F 32.1 °F 21.2 °F 52% 30.21 in 10.0 mi SW 6.9 mph - N/A   Overcast
7:55 AM 37.4 °F 32.1 °F 23.0 °F 56% 30.21 in 10.0 mi SW 6.9 mph - N/A   Overcast
8:15 AM 37.4 °F 33.8 °F 23.0 °F 56% 30.20 in 10.0 mi SW 4.6 mph - N/A   Overcast
8:35 AM 41.0 °F 35.8 °F 26.6 °F 57% 30.21 in 10.0 mi SW 8.1 mph - N/A   Overcast
8:55 AM 41.0 °F 35.8 °F 26.6 °F 57% 30.19 in 10.0 mi SW 8.1 mph - N/A   Overcast
9:15 AM 42.8 °F 37.5 °F 28.4 °F 57% 30.19 in 10.0 mi SW 9.2 mph - N/A   Mostly Cloudy
9:35 AM 44.6 °F 38.8 °F 30.2 °F 57% 30.19 in 10.0 mi SW 11.5 mph - N/A   Mostly Cloudy
9:55 AM 46.4 °F 40.7 °F 32.0 °F 57% 30.19 in 10.0 mi WSW 12.7 mph 17.3 mph N/A   Overcast
10:15 AM 46.4 °F 41.1 °F 32.0 °F 57% 30.19 in 10.0 mi SW 11.5 mph 18.4 mph N/A   Overcast
10:35 AM 46.4 °F 41.1 °F 33.8 °F 62% 30.19 in 10.0 mi West 11.5 mph 18.4 mph N/A   Overcast
10:55 AM 46.4 °F 41.9 °F 33.8 °F 62% 30.18 in 10.0 mi WSW 9.2 mph 18.4 mph N/A   Overcast
11:15 AM 48.2 °F - 35.6 °F 62% 30.17 in 10.0 mi SW 11.5 mph - N/A   Overcast
11:35 AM 48.2 °F - 35.6 °F 62% 30.16 in 10.0 mi SW 11.5 mph - N/A   Overcast
11:55 AM 50.0 °F - 35.6 °F 58% 30.14 in 10.0 mi SW 11.5 mph - N/A   Overcast
12:15 PM 50.0 °F - 37.4 °F 62% 30.13 in 10.0 mi SW 11.5 mph - N/A   Overcast
12:35 PM 51.8 °F - 37.4 °F 58% 30.11 in 10.0 mi WSW 13.8 mph 21.9 mph N/A   Overcast
12:55 PM 51.8 °F - 37.4 °F 58% 30.09 in 10.0 mi WSW 11.5 mph - N/A   Overcast
1:15 PM 51.8 °F - 37.4 °F 58% 30.08 in 10.0 mi West 13.8 mph 20.7 mph N/A   Overcast
1:35 PM 51.8 °F - 39.2 °F 62% 30.08 in 10.0 mi WSW 10.4 mph 16.1 mph N/A   Overcast
1:55 PM 51.8 °F - 39.2 °F 62% 30.06 in 10.0 mi WSW 10.4 mph - N/A   Overcast
2:15 PM 51.8 °F - 41.0 °F 67% 30.05 in 10.0 mi WSW 11.5 mph 16.1 mph N/A   Overcast
2:35 PM 51.8 °F - 42.8 °F 71% 30.04 in 10.0 mi WSW 13.8 mph 18.4 mph N/A   Overcast
2:55 PM 51.8 °F - 42.8 °F 71% 30.03 in 10.0 mi WSW 11.5 mph 17.3 mph N/A   Overcast
3:15 PM 51.8 °F - 42.8 °F 71% 30.02 in 10.0 mi WSW 10.4 mph - N/A   Overcast
3:35 PM 51.8 °F - 42.8 °F 71% 30.01 in 10.0 mi WSW 9.2 mph - N/A   Overcast
3:55 PM 51.8 °F - 42.8 °F 71% 30.01 in 10.0 mi WSW 9.2 mph - N/A   Overcast
4:15 PM 51.8 °F - 42.8 °F 71% 30.01 in 10.0 mi WSW 5.8 mph - N/A   Overcast
4:35 PM 51.8 °F - 42.8 °F 71% 30.01 in 10.0 mi WSW 6.9 mph - N/A   Overcast
4:55 PM 53.6 °F - 44.6 °F 72% 30.00 in 10.0 mi WSW 9.2 mph - N/A   Overcast
5:15 PM 51.8 °F - 44.6 °F 76% 30.00 in 10.0 mi WSW 9.2 mph - N/A   Mostly Cloudy
5:35 PM 51.8 °F - 44.6 °F 76% 30.00 in 10.0 mi WSW 5.8 mph - N/A   Mostly Cloudy
5:55 PM 51.8 °F - 44.6 °F 76% 30.01 in 10.0 mi WSW 8.1 mph - N/A   Mostly Cloudy
6:15 PM 51.8 °F - 44.6 °F 76% 30.01 in 10.0 mi WSW 9.2 mph - N/A   Scattered Clouds
6:35 PM 51.8 °F - 44.6 °F 76% 30.01 in 10.0 mi WSW 6.9 mph - N/A   Mostly Cloudy
6:55 PM 51.8 °F - 44.6 °F 76% 30.01 in 10.0 mi WSW 8.1 mph - N/A   Overcast
7:15 PM 50.0 °F - 44.6 °F 82% 30.00 in 10.0 mi SW 10.4 mph 17.3 mph N/A   Mostly Cloudy
7:35 PM 50.0 °F - 44.6 °F 82% 30.01 in 10.0 mi WSW 8.1 mph - N/A   Mostly Cloudy
7:55 PM 50.0 °F - 46.4 °F 87% 30.02 in 10.0 mi WSW 8.1 mph 16.1 mph N/A   Overcast
8:15 PM 50.0 °F - 46.4 °F 87% 30.03 in 10.0 mi West 5.8 mph - N/A   Mostly Cloudy
8:35 PM 50.0 °F - 46.4 °F 87% 30.03 in 10.0 mi WSW 4.6 mph - N/A   Scattered Clouds
8:55 PM 50.0 °F - 48.2 °F 94% 30.03 in 10.0 mi WSW 5.8 mph - N/A   Clear
9:15 PM 48.2 °F - 48.2 °F 100% 30.04 in 10.0 mi WSW 4.6 mph - N/A   Clear
10:15 PM 46.4 °F 44.3 °F 46.4 °F 100% 30.05 in 10.0 mi WSW 4.6 mph - N/A   Clear
10:35 PM 46.4 °F - 46.4 °F 100% 30.05 in 10.0 mi Calm Calm - N/A   Clear
10:55 PM 46.4 °F 45.2 °F 46.4 °F 100% 30.05 in 10.0 mi West 3.5 mph - N/A   Clear
11:15 PM 46.4 °F 45.2 °F 46.4 °F 100% 30.05 in 10.0 mi West 3.5 mph - N/A   Clear
11:35 PM 46.4 °F 44.3 °F 46.4 °F 100% 30.05 in 10.0 mi West 4.6 mph - N/A   Clear
11:55 PM 46.4 °F 44.3 °F 46.4 °F 100% 30.04 in 10.0 mi West 4.6 mph - N/A   Clear